Tracking 29892 objects as of 21-Nov-2024
HD Live streaming from Space Station
objects crossing your sky now

COSMOS 1528

Track COSMOS 1528 now!
10-day predictions
COSMOS 1528 is classified as:


NORAD ID: 14617
Int'l Code: 1984-001G
Perigee: 1,467.5 km
Apogee: 1,483.9 km
Inclination: 74.0 °
Period: 115.3 minutes
Semi major axis: 7846 km
RCS: 0.7124 m2 (medium)
Launch date: January 5, 1984
Source: Commonwealth of Independent States (former USSR) (CIS)
Launch site: PLESETSK MISSILE AND SPACE COMPLEX (PKMTR)
Your satellite tracking list
Your tracking list is empty




NASA's NSSDC Master Catalog

Two Line Element Set (TLE):
1 14617U 84001G   24325.92353339  .00000007  00000-0  15154-3 0  9991
2 14617  74.0110  28.6839 0010463 212.8570 258.3840 12.49025750863843
Source of the keplerian elements: AFSPC